Location: Unspecified
(0.0000°N, 0.0000°E)
Time: 20:49:27
(UTC+00:00)

ARIANE 1 DEB - Pass Details

Date: 23 February 2026
Orbit: 376 x 19604 km, 19.8° (Epoch: 20 January)

Event Time Altitude Azimuth Distance (km) Brightness Sun altitude
Exits shadow 04:06:13 13° 188° (S) 2,302 ? -31.3°
Maximum altitude 04:09:55 22° 143° (SE) 2,709 ? -30.4°
Drops below altitude 10° 04:21:40 10° 98° (E) 6,838 ? -27.5°
Sets 04:36:58 0° 86° (E) 11,738 ? -23.7°
